�������l�o���
Date,Time,MP-1(��Sv/h),MP-2(��Sv/h),MP-3(��Sv/h),MP-4(��Sv/h),MP-5(��Sv/h),MP-6(��Sv/h),MP-7(��Sv/h),MP-8(��Sv/h),����,����(m/s),���J
2018/09/11,00:00,0.771,1.133,0.808,1.429,1.026,0.458,0.793,0.752,�k,9.5,�L
2018/09/11,00:10,0.772,1.135,0.808,1.429,1.029,0.458,0.791,0.752,�k,9.1,�L
2018/09/11,00:20,0.771,1.133,0.810,1.428,1.029,0.457,0.792,0.755,�k�k��,8.7,�L
2018/09/11,00:30,0.770,1.135,0.811,1.429,1.029,0.458,0.793,0.753,�k�k��,10.9,�L
2018/09/11,00:40,0.771,1.135,0.809,1.430,1.026,0.455,0.794,0.755,�k�k��,11.7,�L
2018/09/11,00:50,0.770,1.133,0.808,1.431,1.026,0.456,0.793,0.755,�k�k��,11.6,�L
2018/09/11,01:00,0.770,1.136,0.808,1.429,1.028,0.457,0.792,0.754,�k�k��,10.9,�L
2018/09/11,01:10,0.771,1.132,0.809,1.432,1.025,0.457,0.794,0.756,�k�k��,9.7,�L
2018/09/11,01:20,0.769,1.133,0.809,1.432,1.031,0.457,0.795,0.755,�k,9.9,�L
2018/09/11,01:30,0.770,1.133,0.807,1.428,1.027,0.458,0.793,0.755,�k,8.9,�L
2018/09/11,01:40,0.770,1.132,0.809,1.430,1.027,0.457,0.793,0.756,�k,8.4,�L
2018/09/11,01:50,0.771,1.133,0.809,1.431,1.025,0.456,0.793,0.755,�k�k��,10.5,�L
2018/09/11,02:00,0.771,1.134,0.807,1.430,1.029,0.457,0.794,0.754,�k�k��,9.3,�L
2018/09/11,02:10,0.773,1.133,0.807,1.429,1.025,0.456,0.792,0.755,�k�k��,10.0,�L
2018/09/11,02:20,0.769,1.135,0.809,1.428,1.025,0.455,0.794,0.756,�k,8.5,�L
2018/09/11,02:30,0.772,1.133,0.809,1.432,1.025,0.457,0.793,0.755,�k,8.8,�L
2018/09/11,02:40,0.772,1.135,0.812,1.428,1.024,0.457,0.794,0.755,�k,8.9,�L
2018/09/11,02:50,0.771,1.131,0.806,1.431,1.025,0.457,0.791,0.754,�k,9.7,�L
2018/09/11,03:00,0.768,1.130,0.804,1.426,1.022,0.457,0.792,0.754,�k,7.5,�L
2018/09/11,03:10,0.771,1.128,0.806,1.425,1.020,0.457,0.793,0.754,�k,8.3,�L
2018/09/11,03:20,0.772,1.130,0.806,1.426,1.018,0.457,0.793,0.753,�k,7.4,�L
2018/09/11,03:30,0.770,1.127,0.807,1.425,1.020,0.456,0.793,0.753,�k,9.2,�L
2018/09/11,03:40,0.769,1.130,0.804,1.427,1.020,0.456,0.791,0.753,�k,9.3,�L
2018/09/11,03:50,0.768,1.132,0.806,1.424,1.019,0.455,0.791,0.755,�k,7.0,�L
2018/09/11,04:00,0.769,1.128,0.805,1.423,1.018,0.455,0.792,0.754,�k,7.1,�L
2018/09/11,04:10,0.767,1.128,0.802,1.418,1.016,0.454,0.791,0.754,�k,7.8,�L
2018/09/11,04:20,0.766,1.127,0.804,1.420,1.017,0.454,0.789,0.753,�k,8.9,�L
2018/09/11,04:30,0.766,1.127,0.804,1.419,1.016,0.453,0.791,0.751,�k,7.3,�L
2018/09/11,04:40,0.766,1.126,0.805,1.421,1.018,0.454,0.789,0.752,�k�k��,8.1,�L
2018/09/11,04:50,0.767,1.129,0.805,1.424,1.018,0.452,0.791,0.752,�k�k��,8.6,�L
2018/09/11,05:00,0.768,1.125,0.803,1.421,1.020,0.453,0.790,0.751,�k�k��,6.5,�L
2018/09/11,05:10,0.766,1.125,0.804,1.425,1.018,0.453,0.790,0.753,�k,6.1,�L
2018/09/11,05:20,0.764,1.116,0.802,1.414,1.011,0.451,0.786,0.750,�k,8.6,�L
2018/09/11,05:30,0.764,1.118,0.803,1.415,1.013,0.453,0.787,0.751,�k,7.3,�L
2018/09/11,05:40,0.766,1.122,0.802,1.415,1.009,0.453,0.788,0.750,�k,6.5,�L
2018/09/11,05:50,0.766,1.119,0.804,1.416,1.014,0.452,0.787,0.752,�k�k��,6.0,�L
2018/09/11,06:00,0.766,1.121,0.803,1.417,1.014,0.452,0.789,0.752,�k,6.2,�L
2018/09/11,06:10,0.766,1.122,0.802,1.417,1.014,0.453,0.788,0.750,�k,6.8,�L
2018/09/11,06:20,0.766,1.122,0.803,1.415,1.014,0.453,0.788,0.750,�k,5.6,�L
2018/09/11,06:30,0.768,1.125,0.802,1.415,1.014,0.453,0.789,0.749,�k�k��,6.0,�L
2018/09/11,06:40,0.768,1.125,0.805,1.418,1.016,0.452,0.788,0.750,�k�k��,5.3,�L
2018/09/11,06:50,0.767,1.124,0.801,1.418,1.014,0.452,0.789,0.752,�k�k��,6.4,�L
2018/09/11,07:00,0.766,1.126,0.805,1.419,1.015,0.453,0.790,0.751,�k�k��,7.2,�L
2018/09/11,07:10,0.767,1.126,0.801,1.422,1.015,0.452,0.788,0.750,�k�k��,5.7,�L
2018/09/11,07:20,0.766,1.122,0.804,1.422,1.016,0.453,0.789,0.752,�k,6.4,�L
2018/09/11,07:30,0.766,1.124,0.804,1.421,1.016,0.453,0.789,0.752,�k�k��,5.8,�L
2018/09/11,07:40,0.764,1.121,0.800,1.418,1.013,0.452,0.789,0.751,�k,6.4,�L
2018/09/11,07:50,0.765,1.121,0.803,1.417,1.014,0.453,0.790,0.749,�k,7.2,�L
2018/09/11,08:00,0.766,1.124,0.804,1.419,1.015,0.452,0.790,0.750,�k,7.3,�L
2018/09/11,08:10,0.767,1.125,0.803,1.418,1.016,0.453,0.790,0.752,�k,6.8,�L
2018/09/11,08:20,0.768,1.127,0.805,1.420,1.017,0.453,0.790,0.751,�k�k��,6.5,�L
2018/09/11,08:30,0.767,1.127,0.805,1.420,1.017,0.453,0.792,0.750,�k�k��,5.8,�L
2018/09/11,08:40,0.765,1.129,0.805,1.422,1.016,0.453,0.790,0.752,�k,4.5,�L
2018/09/11,08:50,0.767,1.127,0.805,1.425,1.020,0.453,0.791,0.751,�k�k��,5.0,�L
2018/09/11,09:00,0.767,1.130,0.803,1.422,1.019,0.452,0.790,0.751,�k�k��,5.5,�L
2018/09/11,09:10,0.767,1.126,0.805,1.427,1.020,0.452,0.791,0.752,�k�k��,5.0,�L
2018/09/11,09:20,0.768,1.129,0.806,1.427,1.022,0.453,0.791,0.752,�k,4.7,�L
2018/09/11,09:30,0.768,1.131,0.804,1.430,1.021,0.453,0.790,0.752,�k�k��,4.4,�L
2018/09/11,09:40,0.768,1.129,0.804,1.426,1.023,0.454,0.791,0.752,�k�k��,5.1,�L
2018/09/11,09:50,0.768,1.129,0.808,1.430,1.022,0.453,0.793,0.753,�k�k��,5.4,�L
2018/09/11,10:00,0.767,1.130,0.805,1.432,1.022,0.451,0.791,0.754,�k�k��,6.1,�L
2018/09/11,10:10,0.768,1.130,0.807,1.431,1.024,0.453,0.791,0.753,�k,5.1,��
2018/09/11,10:20,0.767,1.130,0.806,1.432,1.023,0.452,0.792,0.754,�k�k��,5.4,�L
2018/09/11,10:30,0.766,1.134,0.807,1.432,1.025,0.453,0.793,0.754,�k�k��,5.4,��
2018/09/11,10:40,0.766,1.133,0.807,1.431,1.025,0.451,0.795,0.755,�k�k��,4.8,��
2018/09/11,10:50,0.768,1.134,0.806,1.432,1.025,0.451,0.793,0.754,�k�k��,5.6,��
2018/09/11,11:00,0.769,1.133,0.804,1.435,1.024,0.452,0.794,0.753,�k�k��,5.2,��
2018/09/11,11:10,0.768,1.135,0.807,1.433,1.027,0.451,0.794,0.755,�k�k��,5.7,��
2018/09/11,11:20,0.768,1.137,0.806,1.433,1.027,0.449,0.795,0.753,�k�k��,5.7,��
2018/09/11,11:30,0.771,1.138,0.807,1.435,1.028,0.453,0.793,0.756,�k�k��,5.7,��
2018/09/11,11:40,0.769,1.139,0.807,1.433,1.027,0.452,0.795,0.754,�k�k��,5.6,��
2018/09/11,11:50,0.770,1.139,0.806,1.435,1.028,0.452,0.797,0.753,�k,5.8,��
2018/09/11,12:00,0.771,1.141,0.808,1.433,1.029,0.451,0.793,0.755,�k,5.3,��
2018/09/11,12:10,0.770,1.144,0.807,1.437,1.029,0.453,0.796,0.754,�k,5.9,�L
2018/09/11,12:20,0.770,1.142,0.809,1.435,1.032,0.451,0.797,0.754,�k�k��,6.2,�L
2018/09/11,12:30,0.770,1.142,0.808,1.436,1.030,0.453,0.796,0.754,�k,5.1,�L
2018/09/11,12:40,0.770,1.138,0.808,1.438,1.031,0.452,0.795,0.753,�k�k��,7.6,�L
2018/09/11,12:50,0.769,1.138,0.806,1.439,1.030,0.453,0.796,0.754,�k�k��,6.7,�L
2018/09/11,13:00,0.770,1.136,0.807,1.439,1.030,0.453,0.795,0.754,�k�k��,7.9,�L
2018/09/11,13:10,0.770,1.138,0.807,1.437,1.029,0.452,0.797,0.753,�k�k��,7.2,�L
2018/09/11,13:20,0.770,1.136,0.806,1.441,1.030,0.452,0.797,0.755,�k�k��,6.9,�L
2018/09/11,13:30,0.769,1.138,0.809,1.438,1.031,0.453,0.797,0.754,�k�k��,6.8,�L
2018/09/11,13:40,0.770,1.137,0.811,1.441,1.031,0.454,0.797,0.756,�k�k��,7.6,�L
2018/09/11,13:50,0.770,1.138,0.810,1.440,1.031,0.455,0.795,0.755,�k�k��,8.1,�L
2018/09/11,14:00,0.770,1.140,0.812,1.440,1.032,0.453,0.795,0.755,�k�k��,8.4,�L
2018/09/11,14:10,0.770,1.141,0.812,1.442,1.035,0.453,0.798,0.757,�k�k��,7.6,�L
2018/09/11,14:20,0.771,1.140,0.811,1.440,1.032,0.453,0.797,0.756,�k�k��,7.9,�L
2018/09/11,14:30,0.771,1.140,0.810,1.442,1.035,0.453,0.796,0.757,�k�k��,8.2,��
2018/09/11,14:40,0.773,1.141,0.812,1.441,1.032,0.453,0.796,0.757,�k�k��,7.7,�L
2018/09/11,14:50,0.772,1.144,0.813,1.440,1.030,0.454,0.797,0.757,�k�k��,7.4,��
2018/09/11,15:00,0.770,1.142,0.812,1.443,1.034,0.455,0.798,0.756,�k�k��,7.4,��
2018/09/11,15:10,0.773,1.144,0.815,1.440,1.034,0.453,0.796,0.759,�k�k��,7.2,��
2018/09/11,15:20,0.772,1.146,0.813,1.444,1.034,0.453,0.798,0.757,�k�k��,7.6,��
2018/09/11,15:30,0.772,1.141,0.812,1.445,1.034,0.451,0.797,0.759,�k�k��,7.2,��
2018/09/11,15:40,0.772,1.146,0.813,1.442,1.033,0.453,0.796,0.757,�k�k��,7.1,��
2018/09/11,15:50,0.773,1.145,0.812,1.445,1.033,0.454,0.797,0.758,�k�k��,6.1,��
2018/09/11,16:00,0.773,1.149,0.814,1.444,1.036,0.453,0.798,0.757,�k�k��,6.5,��
2018/09/11,16:10,0.772,1.148,0.812,1.443,1.037,0.451,0.797,0.758,�k�k��,6.5,��
2018/09/11,16:20,0.773,1.150,0.814,1.444,1.036,0.451,0.799,0.757,�k�k��,5.8,��
2018/09/11,16:30,0.774,1.149,0.812,1.444,1.034,0.452,0.799,0.757,�k�k��,5.8,��
2018/09/11,16:40,0.774,1.150,0.813,1.444,1.036,0.454,0.799,0.758,�k�k��,6.4,��
2018/09/11,16:50,0.772,1.150,0.813,1.446,1.037,0.452,0.798,0.758,�k�k��,5.8,��
2018/09/11,17:00,0.774,1.150,0.813,1.445,1.036,0.453,0.797,0.756,�k�k��,5.9,��
2018/09/11,17:10,0.773,1.152,0.815,1.447,1.038,0.455,0.798,0.758,�k�k��,5.6,��
2018/09/11,17:20,0.772,1.152,0.815,1.444,1.039,0.454,0.797,0.758,�k�k��,6.0,��
2018/09/11,17:30,0.774,1.151,0.816,1.444,1.038,0.453,0.799,0.757,�k�k��,5.8,��
2018/09/11,17:40,0.772,1.153,0.816,1.449,1.037,0.454,0.797,0.759,�k�k��,5.6,��
2018/09/11,17:50,0.776,1.153,0.815,1.448,1.039,0.455,0.798,0.757,�k�k��,4.4,��
2018/09/11,18:00,0.773,1.153,0.814,1.447,1.039,0.455,0.799,0.757,�k�k��,2.9,��
2018/09/11,18:10,0.771,1.154,0.813,1.446,1.040,0.454,0.799,0.759,�k,3.1,��
2018/09/11,18:20,0.775,1.154,0.816,1.448,1.041,0.454,0.798,0.758,�k�k��,2.8,��
2018/09/11,18:30,0.774,1.158,0.816,1.446,1.040,0.455,0.796,0.758,�k�k��,2.8,��
2018/09/11,18:40,0.773,1.156,0.817,1.446,1.037,0.455,0.799,0.760,�k,3.1,��
2018/09/11,18:50,0.775,1.157,0.816,1.446,1.039,0.455,0.798,0.760,�k,2.8,��
2018/09/11,19:00,0.776,1.155,0.817,1.449,1.039,0.456,0.798,0.760,�k,3.2,��
2018/09/11,19:10,0.778,1.160,0.816,1.448,1.039,0.456,0.801,0.759,�k,3.0,��
2018/09/11,19:20,0.777,1.156,0.817,1.446,1.039,0.455,0.798,0.758,�k,2.6,��
2018/09/11,19:30,0.777,1.155,0.815,1.447,1.041,0.455,0.799,0.760,�k�k��,2.9,��
2018/09/11,19:40,0.775,1.160,0.815,1.447,1.040,0.456,0.797,0.757,�k��,3.3,��
2018/09/11,19:50,0.778,1.156,0.815,1.449,1.040,0.454,0.798,0.762,�k��,3.4,��
2018/09/11,20:00,0.779,1.157,0.816,1.448,1.043,0.455,0.799,0.759,�k��,4.8,��
2018/09/11,20:10,0.776,1.156,0.816,1.449,1.042,0.456,0.798,0.760,�k��,3.7,��
2018/09/11,20:20,0.775,1.157,0.816,1.450,1.042,0.457,0.799,0.761,�k��,3.4,��
2018/09/11,20:30,0.777,1.158,0.816,1.451,1.043,0.456,0.799,0.760,�k��,5.1,��
2018/09/11,20:40,0.779,1.156,0.816,1.448,1.042,0.455,0.797,0.762,�k��,3.6,��
2018/09/11,20:50,0.778,1.157,0.815,1.450,1.042,0.456,0.799,0.760,�k��,2.5,��
2018/09/11,21:00,0.778,1.158,0.817,1.449,1.040,0.456,0.799,0.760,�k��,2.3,��
2018/09/11,21:10,0.777,1.159,0.815,1.451,1.043,0.456,0.799,0.762,�k��,4.9,��
2018/09/11,21:20,0.779,1.160,0.817,1.450,1.043,0.454,0.799,0.759,���k��,4.6,��
2018/09/11,21:30,0.777,1.157,0.816,1.450,1.040,0.458,0.800,0.759,�k��,4.3,��
2018/09/11,21:40,0.777,1.159,0.815,1.449,1.042,0.458,0.800,0.760,�k�k��,1.9,��
2018/09/11,21:50,0.777,1.158,0.814,1.451,1.042,0.457,0.799,0.761,�k�k��,2.0,��
2018/09/11,22:00,0.775,1.158,0.817,1.450,1.043,0.458,0.799,0.762,�k��,2.6,��
2018/09/11,22:10,0.777,1.156,0.816,1.451,1.044,0.457,0.802,0.760,�k��,2.6,��
2018/09/11,22:20,0.778,1.144,0.816,1.450,1.042,0.457,0.800,0.760,�k��,4.1,��
2018/09/11,22:30,0.778,1.141,0.815,1.449,1.041,0.456,0.802,0.760,���k��,4.6,��
2018/09/11,22:40,0.775,1.144,0.816,1.449,1.040,0.456,0.801,0.761,�k��,3.4,��
2018/09/11,22:50,0.778,1.159,0.815,1.450,1.042,0.458,0.800,0.761,�k,2.6,��
2018/09/11,23:00,0.773,1.156,0.816,1.450,1.043,0.455,0.800,0.762,�k,3.4,��
2018/09/11,23:10,0.778,1.158,0.818,1.450,1.042,0.456,0.800,0.761,�k,2.6,��
2018/09/11,23:20,0.776,1.159,0.817,1.453,1.041,0.455,0.799,0.762,�k�k��,3.2,��
2018/09/11,23:30,0.776,1.158,0.818,1.451,1.044,0.456,0.803,0.760,�k�k��,3.1,��
2018/09/11,23:40,0.778,1.159,0.816,1.451,1.043,0.457,0.802,0.761,�k�k��,3.5,��
2018/09/11,23:50,0.776,1.158,0.815,1.452,1.040,0.456,0.802,0.761,�k,2.6,��
